Home > Weather > U.S.A. > Fort Wayne > Past weeks

Flag for U.S.A. Weather past 2 weeks in Fort Wayne, Indiana, U.S.A.

44 °F

Light rain. Fog.

Feels Like: 42 °F
Forecast: 32 / 48 °F
Wind: 5 mph from Southeast

Location: Fort Wayne International Airport

Current Time: Dec 1, 2015 at 7:56:37 AM

Latest Report: Dec 1, 2015 at 7:04 AM

Visibility: 2 mi

Pressure: 29.84 "Hg

Humidity: 96%

Dew point: 43 °F

Location of Fort WayneLocation

Historic Weather in Fort Wayne — Graph


Fort Wayne temperature yesterday

Maximum temperature yesterday: 46 °F (at 3:54 PM)
Minimum temperature yesterday: 30 °F (at 1:54 AM)
Average temperature yesterday: 38 °F

Past Weeks' High & Low Weather Summary

High62 °F (Nov 17, 2:54 PM)97% (Dec 1, 5:54 AM)30.44 "Hg (Dec 1, 5:54 AM)
Low11 °F (Nov 22, 9:54 PM)19% (Nov 20, 2:54 PM)29.62 "Hg (Nov 18, 1:54 PM)
Average41 °F73%30.18 "Hg
* Reported Nov 16 5:54 AM — Dec 1 5:54 AM, Fort Wayne, Weather by CustomWeather, © 2015

Note: Actual official high and low records may vary slightly from our data, if they occured in-between our weather recording intervals... More about our weather records


Fort Wayne weather history for previous 24 hours

Time TempWeatherWind HumidityBarometerVisibility
5:54 AM
Tue, Dec 1
43 °FLight rain. Fog.6 mph97%29.86 "Hg2 mi
4:54 AM43 °FDrizzle. Fog.8 mph93%29.87 "Hg1 mi
3:54 AM42 °FDrizzle. Fog.7 mph96%29.89 "Hg1 mi
2:54 AM42 °FDrizzle. Fog.9 mph96%29.92 "Hg1 mi
1:54 AM41 °FDrizzle. Fog.6 mph96%29.94 "Hg1 mi
12:54 AM41 °FDrizzle. Fog.12 mph93%29.94 "Hg2 mi
11:54 PM
Mon, Nov 30
40 °FFog.13 mph93%29.98 "Hg6 mi
10:54 PM41 °FLow clouds.12 mph86%30.01 "Hg8 mi
9:54 PM41 °FOvercast.12 mph82%30.03 "Hg10 mi
8:54 PM41 °FOvercast.15 mph80%30.05 "Hg10 mi
7:54 PM41 °FMostly cloudy.16 mph80%30.07 "Hg10 mi
6:54 PM42 °FPassing clouds.16 mph76%30.07 "Hg10 mi
5:54 PM44 °FOvercast.17 mph68%30.08 "Hg10 mi
4:54 PM45 °FPartly sunny.15 mph58%30.08 "Hg10 mi
3:54 PM46 °FPartly sunny.14 mph58%30.09 "Hg10 mi
2:54 PM45 °FPartly sunny.16 mph58%30.10 "Hg10 mi
1:54 PM44 °FPartly sunny.17 mph60%30.13 "Hg10 mi
12:54 PM43 °FPartly sunny.13 mph62%30.15 "Hg10 mi
11:54 AM42 °FBroken clouds.14 mph62%30.19 "Hg10 mi
10:54 AM39 °FScattered clouds.13 mph73%30.20 "Hg10 mi
9:54 AM36 °FPartly sunny.13 mph82%30.21 "Hg10 mi
8:54 AM33 °FBroken clouds.16 mph88%30.21 "Hg7 mi
7:54 AM32 °FIce fog.14 mph88%30.22 "Hg4 mi
Weather by CustomWeather, © 2015

See weather overviewHow to use our weather pages